Left ArrowRight Arrow

Hourly Observations for May 17, 2024

Temp ( °F °C ) Dew Point ( °F °C ) Humidity (%) Winds ( mph kmh ) Pressure ( in mb ) Visibility ( mi km ) Precip ( " mm )
12:10 am 00:10 Clear 61 16 59 15 94 94 S 3 6 29.88 1012 10 16 0.00 0.00
12:30 am 00:30 Clear 63 17 59 15 88 88 S 5 7 29.87 1012 10 16 0.00 0.00
12:50 am 00:50 Clear 63 17 59 15 88 88 SSW 3 6 29.86 1011 10 16 0.00 0.00
1:10 am 01:10 Clear 63 17 59 15 88 88 Calm 29.86 1011 10 16 0.00 0.00
1:30 am 01:30 Clear 61 16 59 15 94 94 S 3 6 29.86 1011 10 16 0.00 0.00
1:50 am 01:50 Clear 61 16 59 15 94 94 S 3 6 29.86 1011 10 16 0.00 0.00
2:10 am 02:10 Clear 61 16 59 15 94 94 Calm 29.86 1011 10 16 0.00 0.00
4:10 am 04:10 Cloudy with Light Rain 61 16 59 15 94 94 Calm 29.86 1011 10 16 0.00 0.00
4:30 am 04:30 Cloudy with Drizzle 61 16 59 15 94 94 Calm 29.86 1011 10 16 0.00 0.00
4:50 am 04:50 Cloudy with Rain 61 16 61 16 100 100 Calm 29.86 1011 10 16 0.00 0.00
5:10 am 05:10 Cloudy with Drizzle 61 16 59 15 94 94 Calm 29.87 1011 10 16 0.00 0.00
5:30 am 05:30 Cloudy 61 16 61 16 100 100 Calm 29.87 1011 10 16 0.00 0.00
5:50 am 05:50 Cloudy with Light Rain 61 16 61 16 100 100 Calm 29.87 1011 10 16 0.00 0.00
6:10 am 06:10 Cloudy with Drizzle 61 16 59 15 94 94 Calm 29.87 1011 10 16 0.00 0.00
6:30 am 06:30 Mostly Cloudy 61 16 59 15 94 94 Calm 29.88 1012 10 16 0.00 0.00
6:50 am 06:50 Cloudy with Drizzle 61 16 59 15 94 94 S 3 6 29.89 1012 10 16 0.00 0.00
7:10 am 07:10 Cloudy with Rain 61 16 61 16 100 100 Calm 29.89 1012 10 16 0.00 0.00
7:30 am 07:30 Cloudy with Rain 61 16 61 16 100 100 Calm 29.90 1012 10 16 0.00 0.00
7:50 am 07:50 Cloudy with Light Rain 61 16 61 16 100 100 Calm 29.90 1012 10 16 0.00 0.00
8:10 am 08:10 Mostly Cloudy with Drizzle 61 16 61 16 100 100 Calm 29.90 1012 10 16 0.00 0.00
8:30 am 08:30 Mostly Cloudy 63 17 61 16 94 94 Calm 29.89 1012 10 16 0.00 0.00
8:50 am 08:50 Mostly Cloudy 63 17 61 16 94 94 S 3 6 29.90 1013 10 16 0.00 0.00
9:10 am 09:10 Cloudy with Drizzle 63 17 61 16 94 94 SSW 3 6 29.90 1013 10 16 0.00 0.00
9:30 am 09:30 Mostly Cloudy with Light Rain 64 18 63 17 94 94 Calm 29.91 1013 10 16 0.00 0.00
9:50 am 09:50 Partly Cloudy 64 18 63 17 94 94 Calm 29.91 1013 10 16 0.00 0.00
10:10 am 10:10 Sunny with Light Rain 66 19 63 17 88 88 Calm 29.91 1013 10 16 0.00 0.00
10:30 am 10:30 Sunny with Drizzle 68 20 63 17 83 83 Calm 29.90 1013 10 16 0.00 0.00
10:50 am 10:50 Mostly Cloudy 68 20 63 17 83 83 Calm 29.90 1013 10 16 0.00 0.00
11:10 am 11:10 Cloudy with Light Rain 68 20 63 17 83 83 Calm 29.89 1012 10 16 0.00 0.00
11:30 am 11:30 Mostly Cloudy 68 20 63 17 83 83 Calm 29.90 1013 10 16 0.00 0.00
11:50 am 11:50 Cloudy 70 21 63 17 78 78 Calm 29.90 1013 10 16 0.00 0.00
12:10 pm 12:10 Cloudy 68 20 63 17 83 83 Calm 29.89 1012 10 16 0.00 0.00
12:30 pm 12:30 Cloudy 68 20 63 17 83 83 ENE 3 6 29.89 1012 10 16 0.00 0.00
12:50 pm 12:50 Cloudy 68 20 63 17 83 83 ESE 5 7 29.89 1012 10 16 0.00 0.00
2:10 pm 14:10 Cloudy with Drizzle 70 21 64 18 83 83 Calm 29.87 1011 10 16 0.00 0.00
2:30 pm 14:30 Cloudy with Rain 68 20 63 17 83 83 SE 3 6 29.86 1011 10 16 0.00 0.00
2:50 pm 14:50 Cloudy with Light Rain 68 20 64 18 88 88 Calm 29.86 1011 7 11 0.00 0.00
3:10 pm 15:10 Cloudy with Rain 66 19 64 18 94 94 S 3 6 29.86 1011 5 8 0.00 0.00
3:30 pm 15:30 Cloudy with Rain 64 18 63 17 94 94 SSE 7 11 29.86 1011 7 11 0.00 0.00
3:50 pm 15:50 Cloudy with Light Rain 64 18 61 16 88 88 SSE 5 7 29.85 1011 7 11 0.00 0.00
4:10 pm 16:10 Cloudy with Light Rain 64 18 63 17 94 94 SSE 5 7 29.85 1011 10 16 0.00 0.00
4:30 pm 16:30 Cloudy with Drizzle 64 18 63 17 94 94 S 5 7 29.86 1011 7 11 0.00 0.00
4:50 pm 16:50 Cloudy with Drizzle 64 18 61 16 88 88 S 8 13 29.86 1011 7 11 0.00 0.00
5:10 pm 17:10 Cloudy with Drizzle 63 17 61 16 94 94 S 6 9 29.86 1011 7 11 0.00 0.00
5:30 pm 17:30 Cloudy 63 17 61 16 94 94 SSE 3 6 29.85 1011 10 16 0.00 0.00
5:50 pm 17:50 Cloudy 63 17 61 16 94 94 Calm 29.85 1011 10 16 0.00 0.00
6:10 pm 18:10 Cloudy 63 17 61 16 94 94 Calm 29.85 1011 10 16 0.00 0.00
6:30 pm 18:30 Cloudy with Rain 63 17 61 16 94 94 SSE 3 6 29.85 1011 10 16 0.00 0.00
6:50 pm 18:50 Cloudy with Drizzle 63 17 63 17 100 100 ESE 3 6 29.84 1011 10 16 0.00 0.00
7:10 pm 19:10 Cloudy with Rain 63 17 61 16 94 94 Calm 29.85 1011 10 16 0.00 0.00
7:30 pm 19:30 Mostly Cloudy with Drizzle 63 17 63 17 100 100 Calm 29.86 1011 7 11 0.00 0.00
7:50 pm 19:50 Mostly Cloudy with Drizzle 63 17 61 16 94 94 Calm 29.86 1011 10 16 0.00 0.00
8:10 pm 20:10 Cloudy 63 17 61 16 94 94 ESE 3 6 29.85 1011 10 16 0.00 0.00
8:30 pm 20:30 Cloudy 63 17 61 16 94 94 SE 3 6 29.85 1011 10 16 0.00 0.00
8:50 pm 20:50 Cloudy 63 17 61 16 94 94 SE 3 6 29.85 1011 10 16 0.00 0.00
9:10 pm 21:10 Cloudy 63 17 61 16 94 94 Calm 29.85 1011 10 16 0.00 0.00
9:30 pm 21:30 Cloudy 63 17 61 16 94 94 Calm 29.85 1011 10 16 0.00 0.00
9:50 pm 21:50 Mostly Cloudy 61 16 61 16 100 100 Calm 29.86 1011 10 16 0.00 0.00
10:10 pm 22:10 Cloudy 61 16 61 16 100 100 Calm 29.86 1011 10 16 0.00 0.00
10:30 pm 22:30 Cloudy 61 16 61 16 100 100 Calm 29.87 1011 10 16 0.00 0.00
10:50 pm 22:50 Cloudy 61 16 61 16 100 100 Calm 29.88 1012 10 16 0.00 0.00
11:10 pm 23:10 Cloudy 61 16 61 16 100 100 Calm 29.88 1012 10 16 0.00 0.00
11:30 pm 23:30 Cloudy 61 16 61 16 100 100 SE 3 6 29.88 1012 10 16 0.00 0.00
11:50 pm 23:50 Cloudy 61 16 61 16 100 100 SE 3 6 29.88 1012 7 11 0.00 0.00

Powered by Vaisala Xweather